Location: Borz?cin
(51.1714°N, 19.6030°E)
Time: 21:17:31
(UTC+00:00)

Cosmos 773 Rocket - Pass Details

Date: 19 May 2025
Orbit: 742 x 772 km, 74.1° (Epoch: 16 June)

Event Time Altitude Azimuth Distance (km) Brightness Sun altitude
Exits shadow 20:11:34 13° 173° (S) 2,071 5.7 -11.9°
Maximum altitude 20:15:51 43° 105° (ESE) 1,044 4.4 -12.3°
Drops below altitude 10° 20:20:40 10° 35° (NE) 2,266 6.7 -12.7°
Sets 20:23:07 0° 29° (NNE) 3,194 7.6 -12.9°
